Location: Newark
(5.8900°S, 42.6378°W)
Time: 00:36:41
(UTC+00:00)

deb Explorer IX - Visible Passes

Search period start: 24 October 2019 00:00
Search period end: 03 November 2019 00:00
Orbit: 545 x 1106 km, 38.8° (Epoch: 22 October)

Date Brightness Start Highest point End Pass type
(mag) Time Alt. Az. Time Alt. Az. Time Alt. Az.
24 Oct ? 22:20:43 10° NW 22:27:53 63° NE 22:28:53 58° ENE visible
25 Oct ? 00:09:13 10° W 00:10:22 14° W 00:10:22 14° W visible
25 Oct ? 21:58:43 10° NW 22:05:50 65° NE 22:09:54 28° ESE visible
25 Oct ? 23:47:14 10° W 23:51:25 26° WSW 23:51:25 26° WSW visible
26 Oct ? 21:36:44 10° NW 21:43:46 67° NE 21:51:04 10° ESE visible
26 Oct ? 23:25:15 10° W 23:31:25 29° SW 23:32:38 28° SSW visible
27 Oct ? 21:14:45 10° NW 21:21:43 68° NE 21:29:02 10° ESE visible
27 Oct ? 23:03:18 10° W 23:09:23 28° SW 23:13:52 16° S visible
28 Oct ? 20:52:49 10° NW 20:59:40 70° NE 21:07:00 10° SE visible
28 Oct ? 22:41:22 10° W 22:47:22 28° SW 22:53:27 10° SSE visible
29 Oct ? 07:49:31 10° SW 07:54:24 66° SE 07:58:38 10° ENE visible
29 Oct ? 22:19:28 10° W 22:25:21 27° SW 22:31:22 10° SSE visible
30 Oct ? 05:43:43 10° SSE 05:44:57 11° SSE 05:46:07 10° SE visible
30 Oct ? 07:27:31 10° SW 07:32:34 69° SE 07:36:56 10° ENE visible
30 Oct ? 21:57:35 10° W 22:03:19 26° SW 22:09:16 10° SSE visible
31 Oct ? 05:24:30 11° SE 05:24:30 11° SE 05:24:59 10° SE visible
31 Oct ? 07:06:00 12° SW 07:10:45 73° SE 07:15:12 10° NE visible
31 Oct ? 21:35:43 10° W 21:41:18 25° SW 21:47:09 10° SSE visible
01 Nov ? 06:47:06 40° SW 06:48:54 77° SE 06:53:29 10° NE visible
01 Nov ? 21:13:52 10° W 21:19:18 24° SW 21:25:02 10° SSE visible
02 Nov ? 06:28:09 54° ENE 06:28:09 54° ENE 06:31:46 10° NE visible
